This is the latest recevied weather packets stored in our database for station/object SO5BO-13. If no packets are shown the sender has not sent any weather packets the latest 10 day(s).
| Time | Temp. | Humidity | Pressure | Rain* | Wind** | Luminosity | Snow |
|---|---|---|---|---|---|---|---|
| 1788419862 | 17.22° C | 84% | 1019.5 hPa | 0 mm | - | 303 W/m² | - |
| 1788419562 | 17.22° C | 85% | 1019.3 hPa | 0 mm | - | 293 W/m² | - |
| 1788419262 | 17.22° C | 85% | 1019.4 hPa | 0 mm | - | 283 W/m² | - |
| 1788418962 | 17.22° C | 86% | 1019.3 hPa | 0 mm | - | 260 W/m² | - |
| 1788418662 | 16.67° C | 86% | 1019.5 hPa | 0 mm | - | 260 W/m² | - |
| 1788418362 | 16.67° C | 87% | 1019.3 hPa | 0 mm | - | 251 W/m² | - |
| 1788418062 | 16.67° C | 87% | 1019.3 hPa | 0 mm | - | 242 W/m² | - |
| 1788417762 | 16.11° C | 87% | 1019.2 hPa | 0 mm | - | 231 W/m² | - |
| 1788417462 | 16.11° C | 88% | 1019.4 hPa | 0 mm | - | 222 W/m² | - |
| 1788417162 | 16.11° C | 88% | 1019.4 hPa | 0 mm | - | 208 W/m² | - |
| 1788416862 | 15.56° C | 88% | 1019.4 hPa | 0 mm | - | 194 W/m² | - |
| 1788416562 | 15.56° C | 89% | 1019.6 hPa | 0 mm | - | 188 W/m² | - |
| 1788416285 | 15.56° C | 89% | 1019.4 hPa | 0 mm | - | 177 W/m² | - |
| 1788415962 | 15.56° C | 90% | 1019.5 hPa | 0 mm | - | 165 W/m² | - |
| 1788415662 | 15.56° C | 90% | 1019.4 hPa | 0 mm | - | 153 W/m² | - |
| 1788415362 | 15° C | 91% | 1019.5 hPa | 0 mm | - | 132 W/m² | - |
| 1788415062 | 15° C | 91% | 1019.4 hPa | 0 mm | - | 92 W/m² | - |
| 1788414762 | 14.44° C | 92% | 1019.4 hPa | 0 mm | - | 57 W/m² | - |
| 1788414462 | 14.44° C | 92% | 1019.4 hPa | 0 mm | - | 50 W/m² | - |
| 1788414162 | 13.89° C | 92% | 1019.5 hPa | 0 mm | - | 48 W/m² | - |
| 1788413862 | 13.89° C | 92% | 1019.4 hPa | 0 mm | - | 43 W/m² | - |
| 1788413562 | 13.89° C | 92% | 1019.3 hPa | 0 mm | - | 42 W/m² | - |
| 1788413262 | 13.89° C | 91% | 1019.3 hPa | 0 mm | - | 40 W/m² | - |
| 1788412962 | 13.89° C | 92% | 1019.4 hPa | 0 mm | - | 40 W/m² | - |
| 1788412661 | 13.89° C | 92% | 1019.4 hPa | 0 mm | - | 41 W/m² | - |
* Rain latest hour (hover to see other rain measurements)
** Current wind speed in m/s (hover to see current wind gust speed)